Weather History for Gallup, NM

Change the Weather History Date:

Monday, May 19, 2014

  Actual Average Record
Temperature  
Mean Temperature 60 °F -  
Max Temperature 81 °F 74 °F 88 °F (2008)
Min Temperature 39 °F 34 °F 22 °F (1977)
Degree Days  
Heating Degree Days 5    
Growing Degree Days 10 (Base 50)    
Moisture  
Dew Point 9 °F    
Average Humidity 13    
Maximum Humidity 29    
Minimum Humidity 6    
Precipitation  
Precipitation 0.00 in - - ()
Sea Level Pressure  
Sea Level Pressure 29.64 in    
Wind  
Wind Speed 12 mph (SW)    
Max Wind Speed 32 mph    
Max Gust Speed 43 mph    
Visibility 10 miles    
Events      
Averages and records for this station are not official NWS values.
T = Trace of Precipitation, MM = Missing Value Source: NWS Daily Summary

Daily Weather History Graph

Daily Weather History Graph

Search for Another Location

Airport:

Trip Planner

Search our weather history database for the weather conditions in past years. The results will help you decide how hot, cold, wet, or windy it might be!

Date:

Astronomy

May. 19, 2014 Rise Set
Actual Time 6:07 AM MDT 8:16 PM MDT
Civil Twilight 5:38 AM MDT 8:44 PM MDT
Nautical Twilight 5:04 AM MDT 9:19 PM MDT
Astronomical Twilight 4:26 AM MDT 9:57 PM MDT
Moon 12:08 AM MDT (5/19) 11:05 AM MDT (5/19)
Length of Visible Light 15h 05m
Length of Day
14h 08m
Waning Gibbous, 70% of the Moon is Illuminated
May 19
Waning Gibbous
May 21
Last Quarter
May 28
New
Jun 5
First Quarter
Jun 12
Full

Hourly Weather History & Observations

Time (MDT) Temp. Windchill Dew Point Humidity Pressure Visibility Wind Dir Wind Speed Gust Speed Precip Events Conditions
12:53 AM 55.0 °F - 9.0 °F 16% 29.61 in 10.0 mi SSW 4.6 mph - N/A   Clear
1:53 AM 45.0 °F - 7.0 °F 21% 29.65 in 10.0 mi Calm Calm - N/A   Clear
2:53 AM 42.1 °F - 7.0 °F 24% 29.67 in 10.0 mi Calm Calm - N/A   Clear
3:53 AM 43.0 °F 38.8 °F 8.1 °F 24% 29.64 in 10.0 mi NNE 6.9 mph - N/A   Clear
4:53 AM 43.0 °F 41.3 °F 9.0 °F 25% 29.65 in 10.0 mi Variable 3.5 mph - N/A   Clear
5:53 AM 39.9 °F - 10.0 °F 29% 29.70 in 10.0 mi Calm Calm - N/A   Clear
7:53 AM 54.0 °F - 16.0 °F 22% 29.67 in 10.0 mi Variable 3.5 mph - N/A   Clear
8:53 AM 64.9 °F - 14.0 °F 14% 29.61 in 10.0 mi SW 20.7 mph 32.2 mph N/A   Clear
9:53 AM 69.1 °F - 14.0 °F 12% 29.62 in 10.0 mi SW 28.8 mph 35.7 mph N/A   Clear
10:53 AM 72.0 °F - 12.9 °F 10% 29.62 in 10.0 mi SSW 25.3 mph 33.4 mph N/A   Clear
12:53 PM 77.0 °F - 10.9 °F 8% 29.61 in 10.0 mi SW 26.5 mph 38.0 mph N/A   Clear
1:53 PM 78.1 °F - 10.0 °F 7% 29.65 in 10.0 mi SW 25.3 mph 39.1 mph N/A   Clear
2:53 PM 81.0 °F - 9.0 °F 6% 29.64 in 10.0 mi WSW 26.5 mph 39.1 mph N/A   Clear
3:53 PM 80.1 °F - 8.1 °F 6% 29.62 in 10.0 mi WSW 32.2 mph 42.6 mph N/A   Clear
4:53 PM 79.0 °F - 7.0 °F 6% 29.62 in 10.0 mi SW 21.9 mph 40.3 mph N/A   Clear
5:53 PM 78.1 °F - 3.9 °F 6% 29.66 in 10.0 mi WSW 32.2 mph 41.4 mph N/A   Clear
6:53 PM 75.0 °F - 3.9 °F 6% 29.67 in 10.0 mi SW 24.2 mph 36.8 mph N/A   Clear
7:53 PM 71.1 °F - 5.0 °F 8% 29.63 in 10.0 mi WSW 21.9 mph 29.9 mph N/A   Clear
8:53 PM 66.9 °F - 5.0 °F 9% 29.61 in 10.0 mi WSW 18.4 mph - N/A   Clear
9:53 PM 63.0 °F - 6.1 °F 11% 29.64 in 10.0 mi SW 10.4 mph - N/A   Clear
10:53 PM 60.1 °F - 8.1 °F 13% 29.65 in 10.0 mi SSW 9.2 mph - N/A   Clear